This is the latest recevied weather packets stored in our database for station/object DX1GM-13. If no packets are shown the sender has not sent any weather packets the latest 1 day(s).
| Time | Temp. | Humidity | Pressure | Rain* | Wind** | Luminosity | Snow |
|---|---|---|---|---|---|---|---|
| 1778154303 | 16.11° C | 50% | 1018 hPa | 0 mm | - | - | - |
| 1778154008 | 16.67° C | 50% | 1018.3 hPa | 0 mm | - | - | - |
| 1778153703 | 16.67° C | 50% | 1018.2 hPa | 0 mm | - | - | - |
| 1778153403 | 16.67° C | 50% | 1018 hPa | 0 mm | - | - | - |
| 1778153103 | 16.67° C | 49% | 1018.3 hPa | 0 mm | - | - | - |
| 1778152803 | 16.67° C | 51% | 1018.3 hPa | 0 mm | - | - | - |
| 1778152503 | 16.67° C | 51% | 1018.3 hPa | 0 mm | - | - | - |
| 1778152203 | 15.56° C | 52% | 1018.3 hPa | 0 mm | - | - | - |
| 1778151903 | 15.56° C | 52% | 1018.3 hPa | 0 mm | - | - | - |
| 1778151603 | 16.11° C | 50% | 1018.3 hPa | 0 mm | - | - | - |
| 1778151303 | 16.11° C | 49% | 1018.3 hPa | 0 mm | - | - | - |
| 1778151003 | 16.67° C | 50% | 1018.3 hPa | 0 mm | - | - | - |
| 1778150703 | 16.11° C | 51% | 1018.2 hPa | 0 mm | - | - | - |
| 1778150403 | 15.56° C | 52% | 1018.5 hPa | 0 mm | - | - | - |
| 1778150103 | 15.56° C | 52% | 1018.5 hPa | 0 mm | - | - | - |
| 1778149803 | 16.11° C | 54% | 1018.2 hPa | 0 mm | - | - | - |
| 1778149503 | 16.11° C | 56% | 1018.3 hPa | 0 mm | - | - | - |
| 1778149203 | 15° C | 54% | 1018.2 hPa | 0 mm | - | - | - |
| 1778148903 | 15° C | 54% | 1018.2 hPa | 0 mm | - | - | - |
| 1778148603 | 15.56° C | 55% | 1018.2 hPa | 0 mm | - | - | - |
| 1778148303 | 15° C | 57% | 1018.3 hPa | 0 mm | - | - | - |
| 1778148003 | 15° C | 57% | 1018.1 hPa | 0 mm | - | - | - |
| 1778147703 | 15° C | 59% | 1018.2 hPa | 0 mm | - | - | - |
| 1778147403 | 15° C | 58% | 1018.1 hPa | 0 mm | - | - | - |
| 1778147103 | 15° C | 56% | 1018.1 hPa | 0 mm | - | - | - |
* Rain latest hour (hover to see other rain measurements)
** Current wind speed in m/s (hover to see current wind gust speed)